This is the latest recevied weather packets stored in our database for station/object 5B4APJ-13. If no packets are shown the sender has not sent any weather packets the latest 10 day(s).
| Time | Temp. | Humidity | Pressure | Rain* | Wind** | Luminosity | Snow |
|---|---|---|---|---|---|---|---|
| 1777800725 | 15° C | 91% | 1007.1 hPa | 0.51 mm | 1.34 m/s, 231° | 121 W/m² | - |
| 1777800425 | 15° C | 91% | 1007.3 hPa | 0.25 mm | 1.79 m/s, 180° | 98 W/m² | - |
| 1777800124 | 15° C | 91% | 1007.1 hPa | 0.25 mm | 2.24 m/s, 225° | 104 W/m² | - |
| 1777799825 | 15° C | 91% | 1007.2 hPa | 0.25 mm | 0.89 m/s, 197° | 116 W/m² | - |
| 1777799525 | 15° C | 91% | 1007 hPa | 0.51 mm | 1.34 m/s, 218° | 100 W/m² | - |
| 1777799225 | 15° C | 92% | 1006.9 hPa | 0.25 mm | 0.45 m/s, 183° | 104 W/m² | - |
| 1777798925 | 15° C | 92% | 1007.2 hPa | 0.25 mm | 1.34 m/s, 217° | 102 W/m² | - |
| 1777798626 | 15° C | 92% | 1007.4 hPa | 0.25 mm | 0.45 m/s, 265° | 108 W/m² | - |
| 1777798325 | 15° C | 91% | 1007.1 hPa | 0.25 mm | 0.89 m/s, 195° | 101 W/m² | - |
| 1777798025 | 15° C | 91% | 1007.2 hPa | 0.25 mm | 0.89 m/s, 220° | 78 W/m² | - |
| 1777797725 | 15° C | 91% | 1007.4 hPa | 0.25 mm | 0.89 m/s, 157° | 84 W/m² | - |
| 1777797425 | 15° C | 91% | 1007.6 hPa | 0.25 mm | 1.79 m/s, 197° | 99 W/m² | - |
| 1777797125 | 15° C | 90% | 1007.5 hPa | 0.25 mm | 1.34 m/s, 247° | 105 W/m² | - |
| 1777796825 | 15° C | 90% | 1007.4 hPa | 0.25 mm | 1.34 m/s, 198° | 105 W/m² | - |
| 1777796525 | 15.56° C | 89% | 1007.5 hPa | 0.25 mm | 2.68 m/s, 210° | 124 W/m² | - |
| 1777796225 | 15.56° C | 88% | 1007.3 hPa | 0 mm | 1.34 m/s, 153° | 131 W/m² | - |
| 1777795925 | 15.56° C | 88% | 1007.1 hPa | 0 mm | 2.68 m/s, 250° | 129 W/m² | - |
| 1777795625 | 15.56° C | 88% | 1007.2 hPa | 0 mm | 0.89 m/s, 250° | 147 W/m² | - |
| 1777795325 | 15° C | 89% | 1007.3 hPa | 0 mm | 0.45 m/s, 223° | 182 W/m² | - |
| 1777795025 | 15° C | 88% | 1007.2 hPa | 0 mm | 0 m/s | 180 W/m² | - |
| 1777794726 | 15.56° C | 88% | 1007 hPa | 0 mm | 1.34 m/s, 172° | 184 W/m² | - |
| 1777794426 | 15.56° C | 89% | 1007.1 hPa | 0 mm | 0.89 m/s, 195° | 146 W/m² | - |
| 1777794126 | 15° C | 88% | 1007.1 hPa | 0 mm | 0.45 m/s, 185° | 122 W/m² | - |
| 1777793825 | 15° C | 88% | 1007.3 hPa | 0 mm | 0 m/s | 128 W/m² | - |
| 1777793526 | 15° C | 88% | 1007.1 hPa | 0 mm | 0.45 m/s, 131° | 168 W/m² | - |
* Rain latest hour (hover to see other rain measurements)
** Current wind speed in m/s (hover to see current wind gust speed)